Regional Weather Roundup
Issued by NWS Newport/Morehead, NC

Current Version | Previous Version | Text Only | Print | Product List | Glossary Off
Versions: 1 2 3 4 5 6 7 8 9 10 11 12 13 14 15 16 17 18 19 20 21 22 23 24 25 26 27 28 29 30 31 32 33 34 35 36 37 38 39 40 41 42 43 44 45 46 47 48 49 50
000 ASUS42 KMHX 282322 RWRMHX WEATHER ROUNDUP FOR EASTERN NORTH CAROLINA NATIONAL WEATHER SERVICE NEWPORT/MOREHEAD CITY NC 600 PM EST SUN DEC 28 2014 NOTE: "FAIR" INDICATES FEW OR NO CLOUDS BELOW 12,000 FEET WITH NO SIGNIFICANT WEATHER AND/OR OBSTRUCTIONS TO VISIBILITY NCZ015>017-031-032-045>047-102-103-290000- NORTH COAST CITY SKY/WX TMP DP RH WIND PRES REMARKS EDENTON DRIZZLE 59 57 94 SW3 30.05R ELIZABETH CITY LGT RAIN 65 57 75 SW13 30.03R KITTY HAWK LGT RAIN 63 56 79 W7 30.03R MANTEO CLOUDY 59 55 88 W3 30.04R $$ NCZ045>047-081-094-103-104-290000- CENTRAL COAST CITY SKY/WX TMP DP RH WIND PRES REMARKS FRISCO CLOUDY 61 58 90 W5 30.05R SWANQUARTER N/A 61 N/A N/A CALM 30.00S $$ NCZ095-097-098-100-101-290000- SOUTHERN COAST CITY SKY/WX TMP DP RH WIND PRES REMARKS BEAUFORT CLEAR 61 58 90 SW8 30.04S CEDAR ISLAND N/A 63 N/A N/A S5 30.06S JACKSONVILLE CLEAR 64 59 83 CALM 30.02R PINEY ISLAND PTCLDY 63 57 81 S5 30.04R WILMINGTON MOCLDY 66 61 84 S8 30.03S $$ NCZ011>013-027>030-043-044-078>080-089-090>093-098-290000- COASTAL PLAIN CITY SKY/WX TMP DP RH WIND PRES REMARKS AHOSKIE RAIN 57 56 96 CALM 30.05R CLINTON CLOUDY 63 61 93 CALM 30.04R ELIZABETHTOWN CLOUDY 66 60 79 CALM 30.04R GOLDSBORO CLOUDY 61 61 100 CALM 30.03S FOG GREENVILLE RAIN 59 59 100 CALM 30.06S HAVELOCK MOCLDY 64 58 80 SW5 30.04S KENANSVILLE CLOUDY 63 58 82 CALM 30.05R KINSTON MOCLDY 63 59 88 CALM 30.05R NEW BERN PTCLDY 62 56 80 N6 30.04R RICHLANDS CLOUDY 66 57 72 CALM 30.04R ROCKY MOUNT CLOUDY 59 57 93 CALM 30.04S WASHINGTON CLOUDY 62 57 84 NW3 30.05R WHITEVILLE CLOUDY 69 61 76 SW5 30.03R $$ AMZ130-135-150-152-154-156-158-170-250-252-270-ANZ085-086-088-633-658-670-290000- MARINE OBSERVATIONS STATION/POSITION TIME TEMP WIND PRES WAVE SWELL AIR SEA DIR/SP/G HT/PER HT/PER (UTC) (F) (DEG/KT/KT) (MB) (FT/S) (FT/S) CHESAPEAKE LIGHT 2300 58 310/ 11/ 14 1017.4 64 E VA BEACH 2300 56 53 230/ 10/ 10 1016.0 3/12 3/12 DUCK 2300 58 49 250/ 7/ 8 1016.4 2 E DUCK 2300 49 N/A 2/13 2/13 10 NE DUCK 2300 51 N/A 2/14 2/14 OREGON INLET 2300 57 53 170/ 3/ 4 1017.2 13E OREGON INLT 2300 55 N/A 2/13 2/13 HATTERAS CG 2300 60 56 1017.9 DIAMOND BUOY 2300 70 1017.3 4/12 17 S OCRACOKE NOT AVBL CAPE LOOKOUT 2300 64 220/ 10/ 13 1017.1 BEAUFORT LAB 2300 61 55 230/ 3/ 8 1016.2 30 SE NEW RIVER 2300 63 60 220/ 8/ 8 1017.9 2/14 2/14 5 SE WRIGHTSVLE NOT AVBL 225 S CAPE HAT 2154 74 74 220/ 16/ 19 1020.5 5/14 3/14 41 SE CHARLESTON 2300 72 73 220/ 12/ 14 1017.9 3/14 2/14 $$

USA.gov is the U.S. government's official web portal to all federal, state and local government web resources and services.